TimeCDT,TemperatureF,Dew PointF,Humidity,Sea Level PressureIn,VisibilityMPH,Wind Direction,Wind SpeedMPH,Gust SpeedMPH,PrecipitationIn,Events,Conditions,WindDirDegrees,DateUTC
12:51 AM,62.1,53.1,72,29.99,10.0,South,9.2,18.4,N/A,,Clear,180,2013-03-16 05:51:00
1:51 AM,60.1,54.0,80,29.97,10.0,South,6.9,-,N/A,,Clear,180,2013-03-16 06:51:00
2:51 AM,59.0,54.0,83,29.95,10.0,South,5.8,-,N/A,,Clear,180,2013-03-16 07:51:00
3:51 AM,59.0,54.0,83,29.94,10.0,Variable,6.9,-,N/A,,Clear,0,2013-03-16 08:51:00
4:51 AM,59.0,54.0,83,29.91,10.0,South,5.8,-,N/A,,Partly Cloudy,190,2013-03-16 09:51:00
5:08 AM,59.0,55.0,87,29.93,10.0,South,8.1,-,N/A,,Mostly Cloudy,190,2013-03-16 10:08:00
5:33 AM,60.1,55.0,83,29.93,10.0,South,8.1,-,N/A,,Overcast,190,2013-03-16 10:33:00
5:47 AM,60.8,55.4,82,29.93,10.0,South,9.2,-,N/A,,Overcast,180,2013-03-16 10:47:00
5:51 AM,60.1,55.0,83,29.91,10.0,South,8.1,-,N/A,,Overcast,190,2013-03-16 10:51:00
6:51 AM,60.1,55.9,86,29.91,10.0,South,6.9,-,N/A,,Overcast,190,2013-03-16 11:51:00
7:51 AM,60.1,55.9,86,29.91,10.0,South,6.9,-,N/A,,Overcast,190,2013-03-16 12:51:00
8:51 AM,62.1,57.0,84,29.91,10.0,SSW,8.1,20.7,N/A,,Overcast,200,2013-03-16 13:51:00
9:51 AM,66.0,57.0,73,29.92,10.0,SSW,13.8,23.0,N/A,,Mostly Cloudy,210,2013-03-16 14:51:00
10:00 AM,66.0,57.0,73,29.94,10.0,SSW,10.4,26.5,N/A,,Mostly Cloudy,200,2013-03-16 15:00:00
10:20 AM,66.0,55.9,70,29.94,10.0,SSW,13.8,28.8,N/A,,Scattered Clouds,200,2013-03-16 15:20:00
10:51 AM,69.1,57.0,65,29.91,10.0,SSW,11.5,20.7,N/A,,Scattered Clouds,200,2013-03-16 15:51:00
11:51 AM,73.0,55.9,55,29.90,10.0,South,11.5,20.7,N/A,,Clear,190,2013-03-16 16:51:00
12:51 PM,78.1,55.9,46,29.87,10.0,South,13.8,21.9,N/A,,Clear,180,2013-03-16 17:51:00
1:51 PM,81.0,53.1,38,29.83,10.0,South,12.7,23.0,N/A,,Clear,170,2013-03-16 18:51:00
2:51 PM,84.9,53.1,33,29.79,10.0,Variable,6.9,23.0,N/A,,Clear,0,2013-03-16 19:51:00
3:51 PM,84.9,50.0,30,29.75,10.0,South,12.7,23.0,N/A,,Clear,190,2013-03-16 20:51:00
4:51 PM,84.9,48.9,29,29.73,10.0,South,12.7,26.5,N/A,,Clear,180,2013-03-16 21:51:00
5:51 PM,84.0,48.0,28,29.72,10.0,South,10.4,20.7,N/A,,Clear,180,2013-03-16 22:51:00
6:51 PM,82.0,48.9,31,29.73,10.0,South,8.1,19.6,N/A,,Clear,190,2013-03-16 23:51:00
7:51 PM,75.9,57.0,52,29.75,10.0,South,13.8,23.0,N/A,,Clear,170,2013-03-17 00:51:00
8:51 PM,73.0,59.0,61,29.76,10.0,South,12.7,24.2,N/A,,Clear,170,2013-03-17 01:51:00
9:51 PM,70.0,60.1,71,29.78,10.0,South,12.7,24.2,N/A,,Partly Cloudy,170,2013-03-17 02:51:00
10:08 PM,69.1,60.1,73,29.81,10.0,South,12.7,19.6,N/A,,Mostly Cloudy,170,2013-03-17 03:08:00
10:51 PM,69.1,60.1,73,29.79,10.0,SSE,11.5,25.3,N/A,,Overcast,160,2013-03-17 03:51:00
11:51 PM,69.1,60.1,73,29.80,10.0,South,15.0,26.5,N/A,,Overcast,170,2013-03-17 04:51:00